Location: College Park
(38.9810°N, 76.9370°W)
Time: 14:24:27
(UTC-05:00)

ISS - Pass Details

Date: 12 January 2018
Orbit: 402 x 407 km, 51.6° (Epoch: 20 January)

Event Time Altitude Azimuth Distance (km) Brightness Sun altitude
Exits shadow 05:02:02 11° 44° (NE) 1,435 -0.6 -27.5°
Drops below altitude 10° 05:02:12 10° 47° (NE) 1,465 -0.6 -27.4°
Sets 05:05:10 0° 76° (ENE) 2,324 1.1 -26.9°
